Weather reports worldwide

Advertisment
Valley, United Kingdom (3302): temperature & dewpoint: 14.07.2018 23:00:00 - 20.07.2018 23:00:00 (BST)Valley, United Kingdom (3302): temperature -20cm & temperature -100cm: 14.07.2018 23:00:00 - 20.07.2018 23:00:00 (BST)Valley, United Kingdom (3302): wind speed: 14.07.2018 23:00:00 - 20.07.2018 23:00:00 (BST)Valley, United Kingdom (3302): wind direction: 14.07.2018 23:00:00 - 20.07.2018 23:00:00 (BST)Valley, United Kingdom (3302): reduced air pressure: 14.07.2018 23:00:00 - 20.07.2018 23:00:00 (BST)Valley, United Kingdom (3302): visibility: 14.07.2018 23:00:00 - 20.07.2018 23:00:00 (BST)Valley, United Kingdom (3302): sunshine duration: 14.07.2018 23:00:00 - 20.07.2018 23:00:00 (BST)Valley, United Kingdom (3302): precipitation: 14.07.2018 23:00:00 - 20.07.2018 23:00:00 (BST)
Date & Time tt [°C] td [°C] tt -20cm [°C] tt -100cm [°C] ff [km/h] ff [kn] dd ppp [hPa] vv [km] sd [min] rr [mm]
20.07.2018 23:00:00 15,1 14,7 - - 13 7 S 1013,2 10 0 -
20.07.2018 22:00:00 14,7 14,5 - - 21 11 SSE 1013,1 3,8 0 0,4
20.07.2018 21:00:00 14,6 14,4 - - 18 10 S 1013,3 3,4 0 0,8
20.07.2018 20:00:00 14,5 14,0 - - 21 11 S 1013,1 3,3 0 0,6
20.07.2018 19:00:00 15,1 13,1 - - 26 14 S 1012,8 7 0 0,2
20.07.2018 18:00:00 15,4 12,8 - - 26 14 S 1013,0 30 0 0,0
20.07.2018 17:00:00 15,1 12,8 - - 24 13 S 1013,6 10 0 0,0
20.07.2018 16:00:00 15,5 12,9 - - 28 15 SSW 1014,0 10 0 0,0
20.07.2018 15:00:00 15,3 12,1 - - 28 15 S 1014,1 10 0 0,0
20.07.2018 14:00:00 15,7 13,1 - - 28 15 S 1014,4 10 0 0,0
20.07.2018 13:00:00 15,1 11,8 - - 26 14 SSW 1014,7 10 0 0,0
20.07.2018 12:00:00 15,0 13,2 - - 18 10 S 1014,7 10 0 0,0
20.07.2018 11:00:00 14,2 12,9 - - 11 6 S 1015,0 10 0 0,8
20.07.2018 10:00:00 13,4 12,3 19,0 16,7 9 5 WSW 1015,6 10 0 2,8
20.07.2018 09:00:00 13,2 12,0 - - 11 6 WSW 1015,7 10 0 2,2
20.07.2018 08:00:00 14,3 13,0 - - 9 5 WSW 1015,9 10 0 1,2
20.07.2018 07:00:00 14,9 13,9 - - 13 7 WSW 1015,8 10 0 0,2
20.07.2018 06:00:00 15,4 13,4 - - 18 10 SW 1015,7 35 0 0,2
20.07.2018 05:00:00 15,6 12,1 - - 18 10 SSW 1016,0 10 0 0,0
20.07.2018 04:00:00 15,7 11,5 - - 18 10 SSW 1016,4 50 0 0,0
20.07.2018 03:00:00 14,0 11,3 - - 9 5 SSE 1016,7 10 0 0,0
20.07.2018 02:00:00 12,4 10,0 - - 5 3 E 1017,1 45 0 0,0
20.07.2018 01:00:00 12,4 9,1 - - 5 3 E 1017,4 10 - 0,0
20.07.2018 00:00:00 14,8 10,8 - - 8 4 S 1017,9 10 0 0,0
19.07.2018 23:00:00 15,6 9,1 - - 4 2 SSW 1018,1 50 0 0,0
19.07.2018 22:00:00 15,8 7,0 - - 9 5 WSW 1018,3 10 0 0,0
19.07.2018 21:00:00 18,6 7,1 - - 5 3 W 1018,3 10 54 0,0
19.07.2018 20:00:00 20,4 7,1 - - 8 4 WNW 1018,2 10 60 0,0
19.07.2018 19:00:00 20,3 6,0 - - 9 5 SW 1018,3 10 60 0,0
19.07.2018 18:00:00 21,3 7,8 - - 8 4 W 1018,5 10 60 0,0
19.07.2018 17:00:00 20,9 7,6 - - 9 5 NW 1018,9 10 60 0,0
19.07.2018 16:00:00 21,1 8,7 - - 13 7 WNW 1019,5 10 60 0,0
19.07.2018 15:00:00 20,0 10,4 - - 11 6 NW 1019,7 10 60 0,0
19.07.2018 14:00:00 19,3 10,3 - - 15 8 SW 1019,7 10 60 0,0
19.07.2018 13:00:00 19,7 10,3 - - 11 6 WSW 1019,8 10 60 0,0
19.07.2018 12:00:00 18,9 10,5 - - 18 10 SW 1020,2 10 54 0,0
19.07.2018 11:00:00 18,1 11,2 - - 15 8 SW 1020,3 10 60 0,0
19.07.2018 10:00:00 17,5 12,6 18,7 16,7 13 7 WSW 1020,2 10 60 0,0
19.07.2018 09:00:00 16,2 12,5 - - 11 6 SW 1020,1 10 42 0,0
19.07.2018 08:00:00 15,5 15,1 - - 13 7 SW 1020,0 10 54 0,0
19.07.2018 07:00:00 12,5 11,6 - - 4 2 ESE 1020,0 10 48 0,0
19.07.2018 06:00:00 11,4 11,1 - - 4 2 NE 1019,7 10 0 0,0
19.07.2018 05:00:00 11,5 11,1 - - 4 2 ESE 1019,8 10 0 0,0
19.07.2018 04:00:00 12,0 11,7 - - 5 3 SE 1020,0 10 0 0,0
19.07.2018 03:00:00 11,9 11,4 - - 4 2 SE 1019,8 12 0 0,0
19.07.2018 02:00:00 12,0 11,2 - - 8 4 SE 1019,8 11 0 0,0
19.07.2018 01:00:00 13,5 12,7 - - 8 4 SE 1019,8 8 - 0,0
19.07.2018 00:00:00 14,1 13,0 - - 5 3 SSW 1019,7 9 0 0,0
18.07.2018 23:00:00 14,1 13,1 - - 5 3 SW 1019,7 7 0 0,0
18.07.2018 22:00:00 15,0 13,8 - - 8 4 WSW 1019,6 7 0 0,0
18.07.2018 21:00:00 16,4 12,0 - - 9 5 WSW 1019,2 10 48 0,0
18.07.2018 20:00:00 18,6 11,2 - - 9 5 W 1018,8 45 60 0,0
18.07.2018 19:00:00 19,7 11,0 - - 9 5 W 1018,5 10 60 0,0
18.07.2018 18:00:00 20,4 10,6 - - 9 5 WSW 1018,4 10 36 0,0
18.07.2018 17:00:00 19,7 13,6 - - 11 6 W 1018,2 10 36 0,0
18.07.2018 16:00:00 20,0 14,0 - - 13 7 W 1018,2 10 54 0,0
18.07.2018 15:00:00 19,9 13,0 - - 15 8 W 1018,0 10 12 0,0
18.07.2018 14:00:00 19,1 13,1 - - 15 8 WSW 1017,9 10 6 0,0
18.07.2018 13:00:00 19,9 11,8 - - 18 10 WSW 1017,7 10 36 0,0
18.07.2018 12:00:00 18,0 12,9 - - 16 9 WSW 1017,4 10 0 0,0
18.07.2018 11:00:00 16,4 14,0 - - 15 8 SW 1017,4 10 0 0,0
18.07.2018 10:00:00 16,3 13,8 18,9 16,7 11 6 SW 1017,2 10 0 0,0
18.07.2018 09:00:00 16,4 14,2 - - 21 11 SSW 1017,0 10 0 0,0
18.07.2018 08:00:00 16,3 14,3 - - 13 7 S 1016,7 10 0 0,0
18.07.2018 07:00:00 15,9 14,1 - - 16 9 S 1016,2 10 0 0,0
18.07.2018 06:00:00 15,5 13,9 - - 16 9 S 1015,9 10 0 0,0
18.07.2018 05:00:00 15,5 13,7 - - 18 10 S 1015,8 40 0 0,0
18.07.2018 04:00:00 15,4 13,7 - - 22 12 S 1015,6 45 0 0,0
18.07.2018 03:00:00 15,3 13,5 - - 22 12 S 1015,9 45 0 0,0
18.07.2018 02:00:00 14,8 13,2 - - 21 11 S 1015,9 10 0 0,0
18.07.2018 01:00:00 14,9 13,4 - - 22 12 S 1016,0 10 - 0,0
18.07.2018 00:00:00 15,4 13,2 - - 18 10 S 1016,1 50 0 0,0
17.07.2018 23:00:00 15,2 13,0 - - 18 10 S 1016,1 10 0 0,0
17.07.2018 22:00:00 14,9 12,8 - - 15 8 S 1016,0 10 0 0,0
17.07.2018 21:00:00 15,4 12,8 - - 18 10 S 1015,8 10 18 0,0
17.07.2018 20:00:00 15,6 12,5 - - 18 10 SSW 1015,7 10 0 0,0
17.07.2018 19:00:00 16,1 12,3 - - 22 12 SSW 1015,5 10 0 0,0
17.07.2018 18:00:00 16,5 12,2 - - 21 11 SSW 1015,7 10 0 0,0
17.07.2018 17:00:00 16,7 12,2 - - 22 12 SSW 1015,8 10 42 0,0
17.07.2018 16:00:00 17,0 11,8 - - 22 12 SW 1015,9 10 60 0,0
17.07.2018 15:00:00 17,4 11,6 - - 16 9 SSW 1015,8 10 60 0,0
17.07.2018 14:00:00 17,0 10,7 - - 18 10 SSW 1015,7 10 42 0,0
17.07.2018 13:00:00 16,7 11,0 - - 16 9 SW 1015,8 10 60 0,0
17.07.2018 12:00:00 17,0 10,9 - - 18 10 SW 1015,7 10 60 0,0
17.07.2018 11:00:00 16,9 10,5 - - 13 7 WSW 1015,5 10 54 0,0
17.07.2018 10:00:00 15,9 10,4 19,0 16,9 16 9 W 1015,3 10 24 0,0
17.07.2018 09:00:00 15,6 11,8 - - 16 9 W 1015,2 10 0 0,0
17.07.2018 08:00:00 14,7 11,6 - - 16 9 W 1014,8 10 0 0,0
17.07.2018 07:00:00 14,5 11,9 - - 13 7 W 1014,6 10 0 0,0
17.07.2018 06:00:00 14,2 12,0 - - 11 6 NW 1014,3 45 0 0,0
17.07.2018 05:00:00 14,2 12,2 - - 9 5 WNW 1014,0 40 0 0,0
17.07.2018 04:00:00 14,1 12,8 - - 5 3 SW 1014,0 40 0 0,0
17.07.2018 03:00:00 13,6 12,6 - - 8 4 WSW 1014,1 26 0 0,0
17.07.2018 02:00:00 14,0 12,7 - - 13 7 SSW 1014,2 25 0 0,0
17.07.2018 01:00:00 14,7 12,7 - - 16 9 SSW 1014,4 40 - 0,0
17.07.2018 00:00:00 15,0 11,7 - - 15 8 S 1014,4 40 0 0,0
16.07.2018 23:00:00 14,9 11,8 - - 11 6 SSE 1014,4 45 0 0,0
16.07.2018 22:00:00 14,3 11,7 - - 8 4 S 1014,5 45 0 0,0
16.07.2018 21:00:00 14,5 11,9 - - 13 7 SW 1014,2 45 18 0,0
16.07.2018 20:00:00 14,8 12,3 - - 13 7 SW 1014,0 35 0 0,0
16.07.2018 19:00:00 16,1 11,4 - - 11 6 WSW 1013,6 10 18 0,0
16.07.2018 18:00:00 16,0 10,2 - - 9 5 NNE 1013,5 10 12 0,0
16.07.2018 17:00:00 15,3 11,4 - - 13 7 NNE 1013,6 10 0 0,0
16.07.2018 16:00:00 14,7 13,0 - - 11 6 ENE 1013,5 15 0 0,0
16.07.2018 15:00:00 14,8 13,3 - - 9 5 N 1013,8 9 0 1,4
16.07.2018 14:00:00 15,2 13,2 - - 15 8 NNW 1013,9 5 0 0,0
16.07.2018 13:00:00 15,0 13,1 - - 9 5 NNW 1013,9 10 0 0,4
16.07.2018 12:00:00 15,3 14,2 - - 13 7 SW 1013,9 10 0 0,0
16.07.2018 11:00:00 15,9 14,4 - - 4 2 WSW 1013,7 10 0 0,2
16.07.2018 10:00:00 15,3 13,8 20,4 16,9 4 2 SSE 1013,8 10 0 0,0
16.07.2018 09:00:00 14,8 14,1 - - 8 4 SE 1013,9 10 0 0,2
16.07.2018 08:00:00 14,8 13,9 - - 2 1 W 1013,9 9 0 1,0
16.07.2018 07:00:00 15,1 13,0 - - 5 3 W 1013,8 10 0 0,0
16.07.2018 06:00:00 14,9 12,6 - - 5 3 SSW 1013,4 14 0 0,0
16.07.2018 05:00:00 15,0 14,1 - - 5 3 WSW 1013,4 40 0 0,0
16.07.2018 04:00:00 15,2 14,7 - - 11 6 W 1013,4 19 0 0,0
16.07.2018 03:00:00 15,7 15,2 - - 22 12 SSW 1013,4 10 0 0,0
16.07.2018 02:00:00 15,9 15,4 - - 26 14 S 1013,7 12 0 0,0
16.07.2018 01:00:00 16,1 15,4 - - 26 14 S 1013,9 12 - 0,2
16.07.2018 00:00:00 16,5 15,7 - - 26 14 S 1013,9 6 0 0,0
15.07.2018 23:00:00 16,7 15,6 - - 21 11 S 1013,8 15 0 0,0
15.07.2018 22:00:00 16,6 15,1 - - 21 11 S 1013,8 15 0 0,0
15.07.2018 21:00:00 16,9 15,1 - - 21 11 SSW 1013,8 18 0 0,0
15.07.2018 20:00:00 17,2 15,1 - - 24 13 S 1013,9 17 0 0,0
15.07.2018 19:00:00 17,7 15,3 - - 21 11 S 1014,0 25 0 0,0
15.07.2018 18:00:00 18,4 15,1 - - 24 13 S 1014,3 22 0 0,0
15.07.2018 17:00:00 18,6 15,1 - - 24 13 S 1014,6 19 42 0,0
15.07.2018 16:00:00 19,7 15,2 - - 29 16 SSW 1014,7 23 48 0,0
15.07.2018 15:00:00 20,8 15,1 - - 34 18 SSW 1014,9 19 60 0,0
15.07.2018 14:00:00 20,3 15,1 - - 31 17 SSW 1015,0 23 60 0,0
15.07.2018 13:00:00 20,9 14,9 - - 31 17 S 1015,2 28 60 0,0
15.07.2018 12:00:00 20,0 14,8 - - 31 17 S 1015,4 22 60 0,0
15.07.2018 11:00:00 19,7 15,1 - - 29 16 S 1015,5 25 60 0,0
15.07.2018 10:00:00 19,0 15,2 20,2 16,7 29 16 S 1015,6 10 30 0,0
15.07.2018 09:00:00 17,5 15,2 - - 28 15 S 1015,6 21 42 0,0
15.07.2018 08:00:00 16,9 15,2 - - 26 14 S 1015,6 19 60 0,0
15.07.2018 07:00:00 16,1 15,1 - - 26 14 S 1015,5 15 42 0,0
15.07.2018 06:00:00 15,6 14,9 - - 24 13 S 1015,5 11 0 0,0
15.07.2018 05:00:00 15,5 14,5 - - 28 15 S 1015,7 14 0 0,0
15.07.2018 04:00:00 15,6 14,5 - - 26 14 S 1016,2 14 0 0,0
15.07.2018 03:00:00 15,8 14,8 - - 28 15 S 1016,3 15 0 0,0
15.07.2018 02:00:00 15,9 14,8 - - 28 15 S 1016,5 14 0 0,0
15.07.2018 01:00:00 16,0 14,7 - - 26 14 S 1016,9 19 - 0,0
15.07.2018 00:00:00 16,3 14,6 - - 26 14 S 1017,1 20 0 0,0
14.07.2018 23:00:00 16,5 14,5 - - 29 16 S 1017,4 26 0 0,0

tt = temperature
td = dewpoint
tt -20cm = temperature -20cm
tt -100cm = temperature -100cm
ff = wind speed
dd = wind direction
ppp = reduced air pressure
vv = visibility
sd = sunshine duration
rr = precipitation

Next stations